Location: Dumpton Point
(51.3500°N, 1.4433°E)
Time: 13:57:50
(UTC+00:00)

Cosmos 1743 Rocket - Visible Passes

Search period start: 06 August 2020 00:00
Search period end: 16 August 2020 00:00
Orbit: 605 x 631 km, 82.6° (Epoch: 05 August)

Date Brightness Start Highest point End Pass type
(mag) Time Alt. Az. Time Alt. Az. Time Alt. Az.
06 Aug 5.2 20:55:38 10° SW 20:59:46 37° WNW 21:03:58 10° N visible
07 Aug 6.1 21:13:34 10° WSW 21:17:10 24° WNW 21:20:48 10° NNW visible
08 Aug 6.6 21:32:02 10° W 21:34:40 15° WNW 21:37:21 10° NNW visible
09 Aug 4.2 20:09:00 10° SSW 20:13:24 61° WNW 20:17:52 10° N visible
10 Aug 5.3 20:26:36 10° SW 20:30:44 36° WNW 20:34:54 10° N visible
11 Aug 6.2 20:44:34 10° WSW 20:48:08 23° WNW 20:51:44 10° NNW visible
12 Aug 6.7 21:03:04 10° W 21:05:39 15° WNW 21:08:14 10° NNW visible
14 Aug 5.5 19:57:34 10° SW 20:01:41 35° WNW 20:05:50 10° N visible
15 Aug 6.4 20:15:33 10° WSW 20:19:05 23° WNW 20:22:40 10° NNW visible
